Weather Roundup
Issued by NWS Chicago, IL

Home | Current Version | Previous Version | Text Only | Print | Product List | Glossary Off
Versions: 1 2 3 4 5 6 7 8 9 10 11 12 13 14 15 16 17 18 19 20 21 22 23 24 25 26 27 28 29 30 31 32 33 34 35 36 37 38 39 40 41 42 43 44 45 46 47 48 49 50

000
NZUS59 KLOT 290000
HRRLOT

CHICAGO AREA WEATHER ROUNDUP
NATIONAL WEATHER SERVICE CHICAGO/ROMEOVILLE IL
700 PM CDT FRI AUG 28 2015

NOTE: "FAIR" INDICATES FEW OR NO CLOUDS BELOW 12,000 FEET WITH NO
SIGNIFICANT WEATHER AND/OR OBSTRUCTIONS TO VISIBILITY.

* THESE STATIONS ARE NOT UNDER NWS QUALITY CONTROL. THEY ALSO MAY NOT
  REPORT WEATHER SUCH AS PRECIPITATION OR FOG.

ILZ005-006-012>014-019>023-290100-
NORTHEAST ILLINOIS

CITY           SKY/WX    TMP DP  RH WIND       PRES   REMARKS
OHARE          CLOUDY    72  60  66 SE6       30.06F
6HR MIN TEMP:  71; 6HR MAX TEMP:  72;

MIDWAY         CLOUDY    74  60  61 VRB5      30.06F
6HR MIN TEMP:  74; 6HR MAX TEMP:  76; 6HR PCP: TRACE;

AURORA         CLOUDY    69  64  84 E5        30.06F
6HR MIN TEMP:  69; 6HR MAX TEMP:  72;

WAUKEGAN       NOT AVBL
DUPAGE AIRPORT CLOUDY    70  61  73 E3        30.06S
6HR MIN TEMP:  69; 6HR MAX TEMP:  71;

WHEELING       CLOUDY    70  59  68 E3        30.08S
6HR MIN TEMP:  70; 6HR MAX TEMP:  72;

NORTHERLY IS     N/A     68  62  81 CALM        N/A
$$

WIZ051-052-058>065-066-070>072-290100-
SOUTHEAST WISCONSIN

CITY           SKY/WX    TMP DP  RH WIND       PRES   REMARKS
MILWAUKEE      LGT RAIN  66  62  87 S7        30.09R FOG
6HR MIN TEMP:  66; 6HR MAX TEMP:  73; 6HR PCP:  0.02;

KENOSHA*       LGT RAIN  68  62  81 SE5       30.09R
RACINE*        LGT RAIN  67  61  81 CALM      30.10R
WAUKESHA       CLOUDY    64  63  94 SE6       30.11R
$$

INZ001>003-010>013-019-020-290100-
NORTHWEST INDIANA

CITY           SKY/WX    TMP DP  RH WIND       PRES   REMARKS
GARY*          CLOUDY    72  61  68 VRB5      30.07F
MICHIGAN CITY* NOT AVBL
RENSSELAER*    NOT AVBL
$$

LMZ740>746-290100-
SOUTHERN LAKE MICHIGAN

STATION/POSITION TIME  SKY/WX   TEMP WIND        PRES    VSBY
                                AIR  DIR/SP/G
                 (UTC)          (F)  (DEG/KT/KT) (MB)    (MI)
HARRISON CRIB    2300            70   90/  8/  8   N/A
BURNHAM HARBOR   2300            68   CALM  /  4   N/A
CALUMET HARBOR   NOT AVBL
BURNS HARBOR     2300            71   70/  9/ 10 1018.6F
MICHIGAN CITY    2300            70   40/  7/  7   N/A
$$

ABBREVIATIONS USED IN REMARKS
   TC - TEMPERATURE IN CELSIUS
  WCI - WIND CHILL INDEX
   HX - HEAT INDEX
  VSB - VISIBILITY
$$


USA.gov is the U.S. government's official web portal to all federal, state and local government web resources and services.